Location: Murphys Corner
(39.1062°N, 77.8244°W)
Time: 18:35:05
(UTC+00:00)

Envisat - Pass Details

Date: 04 February 2023
Orbit: 763 x 765 km, 98.2° (Epoch: 24 March)

Event Time Altitude Azimuth Distance (km) Brightness Sun altitude
Rises 10:05:44 0° 2° (N) 3,240 6.3 -25.4°
Reaches altitude 10° 10:08:15 10° 352° (N) 2,309 5.4 -24.9°
Enters shadow 10:08:25 11° 351° (N) 2,252 5.3 -24.9°
